Regional Weather Roundup
Issued by NWS

Home | Current Version | Previous Version | Graphics & Text | Print | Product List | Glossary On
Versions: 1 2 3 4 5 6 7 8 9 10 11 12 13 14 15 16 17 18 19 20 21 22 23 24 25 26 27 28 29 30 31 32 33 34 35 36 37 38 39 40 41 42 43 44 45 46 47 48 49 50
174
ASUS45 KCYS 010010
RWRWY

WYOMING REGIONAL WEATHER ROUNDUP
NATIONAL WEATHER SERVICE CHEYENNE WY
600 PM MDT FRI SEP 30 2016

NOTE:  "FAIR" INDICATES FEW OR NO CLOUDS BELOW 12,000 FEET
WITH NO SIGNIFICANT WEATHER AND/OR OBSTRUCTIONS TO VISIBILITY.

WYZ001-010100-
YELLOWSTONE NATIONAL PARK

CITY           SKY/WX    TMP DP  RH WIND       PRES   REMARKS
LK YELLOWSTONE   N/A     47  47 100 NW5       30.32R
6HR MIN TEMP:  47; 6HR MAX TEMP:  58; 6HR PCP:  0.44;

W YELLOWSTONE  NOT AVBL

$$
WYZ002>013-054>058-071-098>099-010100-
NORTHERN WYOMING

CITY           SKY/WX    TMP DP  RH WIND       PRES   REMARKS
JACKSON        PTSUNNY   59  45  58 E7        30.24R
CODY           FAIR      71  41  33 NE3       30.11F
GREYBULL       FAIR      77  45  32 CALM      30.02F
6HR MIN TEMP:  69; 6HR MAX TEMP:  79;

WORLAND        FAIR      76  45  33 CALM      30.05S
6HR MIN TEMP:  68; 6HR MAX TEMP:  78;

SHERIDAN       FAIR      73  53  49 SW7       30.04S
6HR MIN TEMP:  73; 6HR MAX TEMP:  81;

BUFFALO        FAIR      69  44  40 NW5       30.11S
6HR MIN TEMP:  69; 6HR MAX TEMP:  78;

GILLETTE       FAIR      74  50  42 N7        30.05S
6HR MIN TEMP:  72; 6HR MAX TEMP:  79;

HULETT         FAIR      75  45  33 CALM      30.07R
NEWCASTLE      FAIR      72  41  33 SE10      30.07S

$$
WYZ014>020-022>026-101>103-010100-
CENTRAL WYOMING

CITY           SKY/WX    TMP DP  RH WIND       PRES   REMARKS
BIG PINEY      FAIR      65  37  35 S3        30.25F
6HR MIN TEMP:  61; 6HR MAX TEMP:  67;

PINEDALE       MOCLDY    64  34  32 W9        30.26F
DUBOIS         FAIR      63  37  39 W6        30.22S
LANDER         FAIR      69  44  40 SW7       30.12S
6HR MIN TEMP:  68; 6HR MAX TEMP:  75;

RIVERTON       FAIR      73  44  35 E8        30.12S
6HR MIN TEMP:  69; 6HR MAX TEMP:  76;

CASPER         FAIR      73  41  31 NW7       30.12S
6HR MIN TEMP:  69; 6HR MAX TEMP:  77;

DOUGLAS        FAIR      70  46  42 SE7       30.11S
6HR MIN TEMP:  69; 6HR MAX TEMP:  81;


$$
WYZ021-027>030-104>119-010100-
SOUTHERN WYOMING

CITY           SKY/WX    TMP DP  RH WIND       PRES   REMARKS
EVANSTON       FAIR      63  40  42 N6        30.26F
6HR MIN TEMP:  61; 6HR MAX TEMP:  68; 6HR PCP: TRACE;

FORT BRIDGER   FAIR      66  40  37 W7        30.29F
ROCK SPRINGS   PTSUNNY   65  42  43 S8        30.23S
6HR MIN TEMP:  64; 6HR MAX TEMP:  70;

DIXON          CLOUDY    64  42  44 CALM      30.28F
RAWLINS        MOCLDY    67  38  34 SW12      30.24S
6HR MIN TEMP:  66; 6HR MAX TEMP:  72;

SARATOGA       FAIR      59  39  47 W15G21    30.27S
LARAMIE        CLOUDY    63  39  41 N7        30.26S
6HR MIN TEMP:  60; 6HR MAX TEMP:  68; 6HR PCP: TRACE;

CHEYENNE       MOCLDY    66  47  50 SE7       30.21R
6HR MIN TEMP:  61; 6HR MAX TEMP:  70; 6HR PCP: TRACE;

TORRINGTON     FAIR      69  49  48 SE13      30.08S
6HR MIN TEMP:  67; 6HR MAX TEMP:  76;

PINE BLUFFS    FAIR      70  43  37 SE12      30.17S

$$




USA.gov is the U.S. government's official web portal to all federal, state and local government web resources and services.